"Pseudo-MPEC" for P112kED

Created 2020 Jul 2 22:07:09 UT using Find_Orb

Click here for an explanation of pseudo-MPECs

 
 Astrometry: 
     P112kED  C2020 06 3011*)heSv[x#Kx`,4QXZn9jqK)+\1pm7v%?*VT(3YZAstrometrysF51
     P112kED  C2020 06 30foJDOs;hO__!BD7S;*joZIid%wm91Mfwv7uLdjn9O.nKR+$G5HqpF51
     P112kED  C2020 06 30r:4Q7'jH/redacted;Wy+HO1fsZ%#htN@YSBo!9?MSS%D5IGxZ]\F51
     P112kED  C2020 06 30)oH#ONqT7[-3*cLIjYWclickoXFs%DSY'6cP^fYflPBh$.!bK(f;F51
     P112kED  C2020 07 01;Cesi^Rgk2n'OE@;$,a/Ohereaw-IRoN4[jPX/#!GVh8B7tK6:@nF51
     P112kED  C2020 07 01'#)BT6Fa`tuu%.')cN9,g5C;`3U'Ua_9)9)OTi$*?B/M$lforjR+F51
     P112kED  C2020 07 01vsts4Z,i`hyGMl+@u4uel%^i4em[UE@R?;%-u2Q6*7'vvGq1B6W!F51
     P112kED  C2020 07 01tFj_9Ko_k!X`e68explanationLlF=sB:un%=*\?%)/v43[Y4m@oF51

Station data:
(F51) Pan-STARRS 1, Haleakala  (N20.707235 W156.255910)  US/Hawaii.
   Observers N. Primak, A. Schultz, S. Watters, J. Thiel, T. Goggia. Measurer
   PS1 Science Consortium. 1.8-m Ritchey-Chrétien + CCD.

Orbital elements:  P112kED
   Perihelion 2020 May 17.427534 +/- 0.496 TT = 10:15:39 (JD 2458986.927534)
Epoch 2020 Jul  1.0 TT = JDT 2459031.5   Earth MOID: 0.0572   AutoNEOCP
M  31.49011176 +/- 0.9              (J2000 ecliptic)
n   0.70649247 +/- 0.0131           Peri.  307.69009 +/- 0.24
a   1.24852627 +/- 0.0155           Node   288.71376 +/- 0.12
e   0.1823189 +/- 0.011             Incl.   10.47836 +/- 0.27
P   1.40/509.55d           H 24.2   G  0.15   U  9.8  
q 1.02089628 +/- 0.00171    Q 1.47615626 +/- 0.032
From 8 observations 2020 June 30-July 1 (25.1 hr); mean residual 0".07
Residuals in arcseconds: 
200630 F51  .04-  .08+    200630 F51  .08-  .07+    200701 F51  .06-  .02-    
200630 F51  .00   .10-    200701 F51  .01-  .11+    200701 F51  .04+  .06+    
200630 F51  .12+  .05-    200701 F51  .03+  .15-    

Ephemerides (geocentric):
Date (UTC) HH   RA              Dec         delta   r     elong  mag " sig PA
---- -- -- --  -------------   -----------  ------ ------ -----  --- ---- ---
2020 07 02 22  21 33 00.154   -31 26 11.93  .06955 1.0728 142.7 20.0 12.4 160
2020 07 02 23  21 32 44.955   -31 19 48.63  .06958 1.0729 142.8 20.0 12.9 160
2020 07 03 00  21 32 29.792   -31 13 25.49  .06960 1.0730 142.9 20.0 13.4 160
2020 07 03 01  21 32 14.665   -31 07 02.52  .06963 1.0731 143.0 20.0 13.9 160
2020 07 03 02  21 31 59.573   -31 00 39.71  .06965 1.0732 143.1 20.0 14.4 160
2020 07 03 03  21 31 44.517   -30 54 17.08  .06968 1.0733 143.2 20.0 14.9 160
2020 07 03 04  21 31 29.496   -30 47 54.63  .06971 1.0734 143.3 20.0 15.4 159
2020 07 03 05  21 31 14.510   -30 41 32.35  .06973 1.0735 143.4 20.0 16.0 159
2020 07 03 06  21 30 59.559   -30 35 10.27  .06976 1.0735 143.5 19.9 16.5 159
2020 07 03 07  21 30 44.643   -30 28 48.37  .06979 1.0736 143.6 19.9 17.1 159
2020 07 03 08  21 30 29.761   -30 22 26.66  .06982 1.0737 143.6 19.9 17.6 159
2020 07 03 09  21 30 14.915   -30 16 05.16  .06985 1.0738 143.7 19.9 18.2 159
2020 07 03 10  21 30 00.103   -30 09 43.85  .06987 1.0739 143.8 19.9 18.8 159
2020 07 03 11  21 29 45.325   -30 03 22.76  .06990 1.0740 143.9 19.9 19.4 159
2020 07 03 12  21 29 30.582   -29 57 01.87  .06993 1.0741 144.0 19.9 20.0 159
2020 07 03 13  21 29 15.873   -29 50 41.20  .06996 1.0742 144.1 19.9 20.6 159
2020 07 03 14  21 29 01.199   -29 44 20.75  .06999 1.0742 144.2 19.9 21.2 159
2020 07 03 15  21 28 46.558   -29 38 00.53  .07002 1.0743 144.3 19.9 21.9 158
2020 07 03 16  21 28 31.952   -29 31 40.53  .07005 1.0744 144.4 19.9 22.5 158
2020 07 03 17  21 28 17.379   -29 25 20.76  .07008 1.0745 144.5 19.9 23.2 158
2020 07 03 18  21 28 02.840   -29 19 01.23  .07012 1.0746 144.6 19.9 23.8 158
2020 07 03 19  21 27 48.335   -29 12 41.94  .07015 1.0747 144.7 19.9 24.5 158
2020 07 03 20  21 27 33.863   -29 06 22.89  .07018 1.0748 144.7 19.9 25.2 158
2020 07 03 21  21 27 19.425   -29 00 04.09  .07021 1.0749 144.8 19.9 25.9 158
2020 07 03 22  21 27 05.021   -28 53 45.54  .07025 1.0749 144.9 19.9 26.6 158
2020 07 03 23  21 26 50.649   -28 47 27.25  .07028 1.0750 145.0 19.9 27.3 158
2020 07 04 00  21 26 36.311   -28 41 09.22  .07031 1.0751 145.1 19.9 28.0 158
2020 07 04 01  21 26 22.006   -28 34 51.45  .07035 1.0752 145.2 19.9 28.7 158
2020 07 04 02  21 26 07.734   -28 28 33.96  .07038 1.0753 145.3 19.9 29.5 158
2020 07 04 03  21 25 53.495   -28 22 16.73  .07041 1.0754 145.4 19.9 30.2 158
2020 07 04 04  21 25 39.288   -28 15 59.78  .07045 1.0755 145.5 19.9 31.0 158
2020 07 04 05  21 25 25.115   -28 09 43.11  .07048 1.0756 145.6 19.9 31.7 158
2020 07 04 06  21 25 10.974   -28 03 26.72  .07052 1.0756 145.6 19.9 32.5 158
2020 07 04 07  21 24 56.865   -27 57 10.62  .07055 1.0757 145.7 19.9 33.3 158
2020 07 04 08  21 24 42.789   -27 50 54.81  .07059 1.0758 145.8 19.9 34.1 158
2020 07 04 09  21 24 28.745   -27 44 39.30  .07063 1.0759 145.9 19.9 34.9 158
2020 07 04 10  21 24 14.733   -27 38 24.09  .07066 1.0760 146.0 19.9 35.7 158
2020 07 04 11  21 24 00.754   -27 32 09.18  .07070 1.0761 146.1 19.9 36.5 158
2020 07 04 12  21 23 46.806   -27 25 54.57  .07074 1.0762 146.2 19.9 37.3 157
2020 07 04 13  21 23 32.890   -27 19 40.28  .07077 1.0763 146.3 19.9 38.2 157
2020 07 04 14  21 23 19.007   -27 13 26.30  .07081 1.0764 146.3 19.9 39.0 157
2020 07 04 15  21 23 05.155   -27 07 12.64  .07085 1.0764 146.4 19.9 39.8 157
2020 07 04 16  21 22 51.334   -27 00 59.30  .07089 1.0765 146.5 19.9 40.7 157
2020 07 04 17  21 22 37.545   -26 54 46.29  .07093 1.0766 146.6 19.9 41.6 157
2020 07 04 18  21 22 23.788   -26 48 33.60  .07097 1.0767 146.7 19.9 42.4 157
2020 07 04 19  21 22 10.062   -26 42 21.25  .07101 1.0768 146.8 19.9 43.3 157
2020 07 04 20  21 21 56.367   -26 36 09.23  .07105 1.0769 146.9 19.9 44.2 157
2020 07 04 21  21 21 42.703   -26 29 57.56  .07109 1.0770 146.9 19.9 45.1 157